Weather History for Antalya, Turkey

Change the Weather History Date:

Sunday, January 22, 2012

  Actual Average Record
Temperature  
Mean Temperature 48 °F -  
Max Temperature 55 °F 59 °F 66 °F (2009)
Min Temperature 42 °F 43 °F 33 °F (2000)
Degree Days  
Heating Degree Days 16    
Moisture  
Dew Point 30 °F    
Average Humidity 52    
Maximum Humidity 93    
Minimum Humidity 19    
Precipitation  
Precipitation 0.00 in 0.27 in - ()
Sea Level Pressure  
Sea Level Pressure 29.77 in    
Wind  
Wind Speed 14 mph ()    
Max Wind Speed 28 mph    
Max Gust Speed -    
Visibility 6.2 miles    
Events Rain , Thunderstorm    
Averages and records for this station are not official NWS values.
T = Trace of Precipitation, MM = Missing Value Source: Averaged Metar Reports

Daily Weather History Graph

Daily Weather History Graph

Search for Another Location

Airport:

Trip Planner

Search our weather history database for the weather conditions in past years. The results will help you decide how hot, cold, wet, or windy it might be!

Date:

Astronomy

Jan. 22, 2012 Rise Set
Actual Time 7:06 AM EET 5:10 PM EET
Civil Twilight 6:38 AM EET 5:38 PM EET
Nautical Twilight 6:06 AM EET 6:09 PM EET
Astronomical Twilight 5:35 AM EET 6:40 PM EET
Moon 6:08 AM EET 4:30 PM EET
Length of Visible Light 10h 59m
Length of Day
10h 04m
Waning Crescent, 1% of the Moon is Illuminated
Jan 22
Waning Crescent
Jan 23
New
Jan 31
First Quarter
Feb 7
Full
Feb 14
Last Quarter

Hourly Weather History & Observations

Time (EET) Temp. Windchill Dew Point Humidity Pressure Visibility Wind Dir Wind Speed Gust Speed Precip Events Conditions
12:20 AM 48.2 °F - 46.4 °F 93% 29.68 in 6.2 mi West 5.8 mph - N/A Rain , Thunderstorm Light Thunderstorms and Rain
12:50 AM 48.2 °F - 46.4 °F 93% 29.68 in 6.2 mi NW 6.9 mph - N/A Rain Light Rain Showers
1:20 AM 50.0 °F - 46.4 °F 87% 29.65 in 6.2 mi NW 6.9 mph - N/A Rain Light Rain Showers
1:50 AM 48.2 °F - 46.4 °F 93% 29.65 in 6.2 mi NNW 5.8 mph - N/A Rain Light Rain Showers
2:00 AM 48 °F - 46 °F 92% 29.65 in 6 mi NNW 5.8 mph - - Rain Light Rain Showers
2:20 AM 48.2 °F - 46.4 °F 93% 29.65 in 6.2 mi North 6.9 mph - N/A Rain Light Rain Showers
2:50 AM 48.2 °F - 46.4 °F 93% 29.62 in 6.2 mi NNW 11.5 mph - N/A Rain Light Rain Showers
3:20 AM 46.4 °F 40.1 °F 41.0 °F 81% 29.65 in 6.2 mi NW 15.0 mph - N/A Rain Light Rain Showers
3:50 AM 46.4 °F 41.5 °F 41.0 °F 81% 29.65 in 6.2 mi NW 10.4 mph - N/A Rain Light Rain Showers
4:20 AM 46.4 °F 39.5 °F 41.0 °F 81% 29.62 in 6.2 mi NNW 17.3 mph - N/A Rain Light Rain Showers
4:50 AM 44.6 °F 37.2 °F 39.2 °F 81% 29.62 in 6.2 mi NNW 17.3 mph - N/A Rain Light Rain Showers
5:20 AM 44.6 °F 37.8 °F 39.2 °F 81% 29.62 in 6.2 mi NW 15.0 mph - N/A Rain Light Rain Showers
5:50 AM 44.6 °F 36.9 °F 39.2 °F 81% 29.62 in 6.2 mi NNW 18.4 mph - N/A Rain Light Rain Showers
6:20 AM 44.6 °F 37.2 °F 37.4 °F 76% 29.62 in 6.2 mi NNW 17.3 mph - N/A   Mostly Cloudy
6:50 AM 46.4 °F 39.0 °F 33.8 °F 62% 29.65 in 6.2 mi NNW 19.6 mph - N/A   Mostly Cloudy
7:20 AM 46.4 °F 38.7 °F 35.6 °F 66% 29.65 in 6.2 mi NNW 20.7 mph - N/A   Mostly Cloudy
7:50 AM 46.4 °F 39.0 °F 33.8 °F 62% 29.65 in 6.2 mi NNW 19.6 mph - N/A   Scattered Clouds
8:00 AM 46 °F - 35 °F 53% 29.65 in 6 mi NNW 19.6 mph - -   Partly Cloudy
8:20 AM 46.4 °F 39.2 °F 33.8 °F 62% 29.68 in 6.2 mi NW 18.4 mph - N/A   Scattered Clouds
8:50 AM 48.2 °F - 32.0 °F 54% 29.68 in 6.2 mi NNW 18.4 mph - N/A   Scattered Clouds
9:20 AM 50.0 °F - 30.2 °F 47% 29.68 in 6.2 mi NW 27.6 mph - N/A   Scattered Clouds
9:50 AM 51.8 °F - 28.4 °F 41% 29.68 in 6.2 mi NW 21.9 mph - N/A   Scattered Clouds
10:20 AM 51.8 °F - 28.4 °F 41% 29.71 in 6.2 mi NW 27.6 mph - N/A   Scattered Clouds
10:50 AM 53.6 °F - 26.6 °F 35% 29.71 in 6.2 mi NW 25.3 mph - N/A   Partly Cloudy
11:20 AM 53.6 °F - 28.4 °F 38% 29.71 in 6.2 mi NW 24.2 mph - N/A   Partly Cloudy
11:50 AM 53.6 °F - 28.4 °F 38% 29.71 in 6.2 mi NW 24.2 mph - N/A   Partly Cloudy
12:20 PM 53.6 °F - 26.6 °F 35% 29.71 in 6.2 mi NW 27.6 mph - N/A   Partly Cloudy
12:50 PM 53.6 °F - 24.8 °F 33% 29.71 in 6.2 mi NW 26.5 mph - N/A   Partly Cloudy
1:20 PM 55.4 °F - 28.4 °F 36% 29.74 in 6.2 mi NNW 25.3 mph - N/A   Partly Cloudy
1:50 PM 55.4 °F - 26.6 °F 33% 29.77 in 6.2 mi NW 25.3 mph - N/A   Partly Cloudy
2:00 PM 55 °F - 25 °F 19% 29.77 in 6 mi NW 25.3 mph - -   Scattered Clouds
2:20 PM 53.6 °F - 24.8 °F 33% 29.80 in 6.2 mi NW 26.5 mph - N/A   Partly Cloudy
2:50 PM 53.6 °F - 24.8 °F 33% 29.80 in 6.2 mi NNW 27.6 mph - N/A   Partly Cloudy
3:20 PM 53.6 °F - 24.8 °F 33% 29.80 in 6.2 mi NNW 24.2 mph - N/A   Partly Cloudy
3:50 PM 53.6 °F - 23.0 °F 30% 29.83 in 6.2 mi NNW 20.7 mph - N/A   Partly Cloudy
4:20 PM 51.8 °F - 24.8 °F 35% 29.86 in 6.2 mi NNW 19.6 mph - N/A   Partly Cloudy
4:50 PM 50.0 °F - 23.0 °F 35% 29.86 in 6.2 mi NNW 18.4 mph - N/A   Partly Cloudy
5:20 PM 50.0 °F - 23.0 °F 35% 29.89 in - NW 19.6 mph - N/A   Clear
5:50 PM 48.2 °F - 23.0 °F 37% 29.89 in - NNW 24.2 mph - N/A   Clear
6:20 PM 48.2 °F - 21.2 °F 34% 29.92 in - NNW 24.2 mph - N/A   Clear
6:50 PM 46.4 °F 39.5 °F 21.2 °F 37% 29.92 in - NNW 17.3 mph - N/A   Clear
7:20 PM 46.4 °F 39.0 °F 21.2 °F 37% 29.92 in - NW 19.6 mph - N/A   Clear
7:50 PM 46.4 °F 39.5 °F 21.2 °F 37% 29.95 in - NW 17.3 mph - N/A   Clear
8:00 PM 46 °F - 22 °F 26% 29.94 in 6 mi NW 17.3 mph - -  
8:20 PM 44.6 °F 38.4 °F 21.2 °F 39% 29.95 in - NNW 12.7 mph - N/A   Clear
8:50 PM 44.6 °F 38.8 °F 21.2 °F 39% 29.95 in - NNW 11.5 mph - N/A   Clear
9:20 PM 44.6 °F 38.4 °F 21.2 °F 39% 29.98 in - NNW 12.7 mph - N/A   Clear
9:50 PM 42.8 °F 37.5 °F 21.2 °F 42% 29.98 in - North 9.2 mph - N/A   Clear
10:20 PM 44.6 °F 38.1 °F 19.4 °F 37% 29.98 in - North 13.8 mph - N/A   Clear
10:50 PM 44.6 °F 37.2 °F 19.4 °F 37% 29.98 in - NNW 17.3 mph - N/A   Clear
11:20 PM 46.4 °F 39.5 °F 17.6 °F 32% 30.01 in - NNW 17.3 mph - N/A   Clear
11:50 PM 44.6 °F 37.2 °F 17.6 °F 34% 30.01 in - NNW 17.3 mph - N/A   Clear